GW0807 Weather Reports


Display with metric or nautical units.
time (UTC)temp
F
wind
direction
speed
MPH
gust
MPH
rain 1hr
in
rain 24hr
in
rain mn
in
humidity
%
barometer
mb
20260505181505 78 170 19.0 23.0 0.00 0.00 0.00 52 1011.8
20260505180005 79 148 17.0 21.0 0.00 0.00 0.00 49 1011.9
20260505175500 79 161 16.0 20.0 0.00 0.00 0.00 49 1011.9
20260505175000 79 166 15.0 20.0 0.00 0.00 0.00 49 1011.9
20260505174504 79 170 17.0 20.0 0.00 0.00 0.00 48 1011.9
20260505174000 79 172 13.0 22.0 0.00 0.00 0.00 48 1011.9
20260505173502 78 162 12.0 20.0 0.00 0.00 0.00 50 1011.9
20260505172459 77 181 15.0 17.0 0.00 0.00 0.00 53 1012.0
20260505172003 77 191 13.0 17.0 0.00 0.00 0.00 55 1012.1
20260505171505 77 186 12.0 14.0 0.00 0.00 0.00 55 1012.2
20260505170500 76 182 12.0 16.0 0.00 0.00 0.00 55 1012.4
20260505170001 76 186 13.0 16.0 0.00 0.00 0.00 59 1012.4
20260505165500 76 190 12.0 16.0 0.00 0.00 0.00 57 1012.5
20260505165004 76 191 12.0 16.0 0.00 0.00 0.00 58 1012.5
20260505163005 75 186 13.0 18.0 0.00 0.00 0.00 56 1012.5
20260505162004 74 186 12.0 14.0 0.00 0.00 0.00 59 1012.7
20260505161501 74 192 12.0 15.0 0.00 0.00 0.00 59 1012.8
20260505160500 74 187 12.0 14.0 0.00 0.00 0.00 59 1012.8
20260505153002 72 190 11.0 14.0 0.00 0.00 0.00 62 1013.0
20260505152505 72 194 12.0 14.0 0.00 0.00 0.00 63 1013.0
20260505152005 72 196 10.0 14.0 0.00 0.00 0.00 63 1013.0
20260505151505 71 192 11.0 14.0 0.00 0.00 0.00 62 1013.1
20260505150504 71 190 11.0 16.0 0.00 0.00 0.00 63 1012.9
20260505140504 70 205 12.0 14.0 0.00 0.00 0.00 64 1012.7
20260505124500 66 198 12.0 15.0 0.00 0.00 0.00 68 1012.9
20260505124000 65 194 12.0 15.0 0.00 0.00 0.00 69 1012.9
20260505123000 66 194 10.0 12.0 0.00 0.00 0.00 69 1012.8
20260505122459 66 212 9.0 15.0 0.00 0.00 0.00 68 1012.7
20260505122002 65 215 11.0 15.0 0.00 0.00 0.00 69 1012.7
20260505121000 65 203 10.0 15.0 0.00 0.00 0.00 69 1012.6
20260505120500 65 208 11.0 18.0 0.00 0.00 0.00 68 1012.6
20260505115959 65 213 10.0 15.0 0.00 0.00 0.00 68 1012.6
20260505115459 65 203 11.0 14.0 0.00 0.00 0.00 70 1012.6
20260505115000 64 213 11.0 15.0 0.00 0.00 0.00 70 1012.5
20260505114458 64 201 10.0 15.0 0.00 0.00 0.00 70 1012.5
20260505113459 64 192 12.0 18.0 0.00 0.00 0.00 71 1012.3
20260505112959 64 201 12.0 18.0 0.00 0.00 0.00 71 1012.2
20260505112459 64 205 13.0 17.0 0.00 0.00 0.00 72 1012.1
20260505111959 63 193 12.0 18.0 0.00 0.00 0.00 72 1012.1
20260505111459 63 202 13.0 19.0 0.00 0.00 0.00 71 1012.2
20260505110459 63 194 14.0 19.0 0.00 0.00 0.00 72 1012.0
20260505102005 62 200 13.0 16.0 0.00 0.00 0.00 74 1012.0
20260505101505 62 200 13.0 16.0 0.00 0.00 0.00 74 1011.9
20260505101000 62 204 12.0 17.0 0.00 0.00 0.00 74 1011.9
20260505100005 63 198 13.0 18.0 0.00 0.00 0.00 73 1011.9
20260505095459 63 205 12.0 17.0 0.00 0.00 0.00 72 1011.8
20260505095000 62 217 11.0 17.0 0.00 0.00 0.00 72 1011.8
20260505094000 63 188 12.0 18.0 0.00 0.00 0.00 73 1011.8
20260505093459 63 211 11.0 18.0 0.00 0.00 0.00 73 1011.8
20260505092504 63 202 13.0 15.0 0.00 0.00 0.00 73 1011.8
20260505092000 63 200 10.0 14.0 0.00 0.00 0.00 73 1011.8
20260505091000 63 205 11.0 14.0 0.00 0.00 0.00 73 1011.8
20260505090500 63 196 11.0 16.0 0.00 0.00 0.00 72 1011.8
20260505090003 63 198 13.0 16.0 0.00 0.00 0.00 72 1011.6
20260505085459 63 198 12.0 15.0 0.00 0.00 0.00 73 1011.7
20260505085000 63 194 11.0 14.0 0.00 0.00 0.00 72 1011.6
20260505084504 63 202 11.0 16.0 0.00 0.00 0.00 73 1011.6
20260505083500 63 197 11.0 15.0 0.00 0.00 0.00 74 1011.6
20260505083005 63 207 12.0 16.0 0.00 0.00 0.00 74 1011.5
20260505082500 63 210 13.0 16.0 0.00 0.00 0.00 74 1011.6
20260505082000 63 200 12.0 17.0 0.00 0.00 0.00 74 1011.6
20260505081000 63 188 13.0 17.0 0.00 0.00 0.00 73 1011.7
20260505080500 63 196 12.0 17.0 0.00 0.00 0.00 72 1011.6
20260505080004 63 192 13.0 17.0 0.00 0.00 0.00 72 1011.5
20260505075459 63 184 13.0 17.0 0.00 0.00 0.00 72 1011.5
20260505075000 63 190 14.0 19.0 0.00 0.00 0.00 71 1011.5
20260505074500 63 182 14.0 19.0 0.00 0.00 0.00 70 1011.5
20260505074004 64 190 14.0 19.0 0.00 0.00 0.00 71 1011.5
20260505073459 64 173 14.0 19.0 0.00 0.00 0.00 71 1011.4
20260505072459 64 189 15.0 19.0 0.00 0.00 0.00 70 1011.4
20260505071500 64 175 14.0 19.0 0.00 0.00 0.00 70 1011.4
20260505070959 64 186 16.0 20.0 0.00 0.00 0.00 70 1011.4
20260505070500 64 185 15.0 20.0 0.00 0.00 0.00 70 1011.5
20260505070005 64 184 16.0 21.0 0.00 0.00 0.00 70 1011.4
20260505065459 64 194 17.0 21.0 0.00 0.00 0.00 70 1011.4
20260505065004 64 189 17.0 21.0 0.00 0.00 0.00 71 1011.4
20260505063959 63 184 16.0 20.0 0.00 0.00 0.00 72 1011.4
20260505063459 63 190 17.0 20.0 0.00 0.00 0.00 72 1011.4
20260505063000 63 183 16.0 22.0 0.00 0.00 0.00 72 1011.4
20260505062459 63 171 18.0 23.0 0.00 0.00 0.00 71 1011.4
20260505061959 64 179 16.0 21.0 0.00 0.00 0.00 70 1011.4
20260505061500 63 173 17.0 23.0 0.00 0.00 0.00 69 1011.4
20260505061004 63 171 17.0 21.0 0.00 0.00 0.00 69 1011.5
20260505060500 64 173 16.0 21.0 0.00 0.00 0.00 69 1011.5
20260505055958 64 170 18.0 23.0 0.00 0.00 0.00 69 1011.5
20260505055458 64 169 19.0 23.0 0.00 0.00 0.00 68 1011.5
20260505054958 64 175 19.0 24.0 0.00 0.00 0.00 69 1011.4
20260505054458 64 169 20.0 24.0 0.00 0.00 0.00 68 1011.5
20260505053958 64 160 19.0 22.0 0.00 0.00 0.00 68 1011.5
20260505053459 64 182 19.0 22.0 0.00 0.00 0.00 68 1011.4
20260505052958 64 180 19.0 21.0 0.00 0.00 0.00 69 1011.4
20260505052458 64 169 18.0 22.0 0.00 0.00 0.00 69 1011.5
20260505051958 64 171 19.0 22.0 0.00 0.00 0.00 70 1011.4
20260505051458 64 190 18.0 23.0 0.00 0.00 0.00 70 1011.4
20260505050959 64 167 18.0 20.0 0.00 0.00 0.00 71 1011.4
20260505050459 64 158 16.0 20.0 0.00 0.00 0.00 72 1011.4
20260505041504 61 117 6.0 9.0 0.00 0.00 0.00 80 1011.4
20260505041004 61 158 6.0 9.0 0.00 0.00 0.00 79 1011.4
20260505040504 61 137 5.0 8.0 0.00 0.00 0.00 80 1011.3
20260505040007 61 133 5.0 10.0 0.00 0.00 0.00 81 1011.3
20260505035505 61 140 5.0 9.0 0.00 0.00 0.00 81 1011.3
20260505035005 61 138 6.0 9.0 0.00 0.00 0.00 80 1011.2
20260505034005 62 151 4.0 9.0 0.00 0.00 0.00 79 1011.2
20260505033505 62 148 5.0 9.0 0.00 0.00 0.00 78 1011.2
20260505033005 62 161 6.0 9.0 0.00 0.00 0.00 78 1011.1
20260505032505 62 138 4.0 9.0 0.00 0.00 0.00 78 1011.2
20260505032004 62 140 5.0 9.0 0.00 0.00 0.00 77 1011.2
20260505031505 62 144 5.0 9.0 0.00 0.00 0.00 77 1011.2
20260505031004 62 148 5.0 9.0 0.00 0.00 0.00 78 1011.1
20260505030505 62 145 6.0 9.0 0.00 0.00 0.00 78 1011.2
20260505025505 62 153 5.0 11.0 0.00 0.00 0.00 79 1011.3
20260505025005 62 134 5.0 9.0 0.00 0.00 0.00 80 1011.2
20260505024505 62 140 5.0 9.0 0.00 0.00 0.00 80 1011.3
20260505024004 62 136 6.0 10.0 0.00 0.00 0.00 81 1011.3
20260505023504 62 117 6.0 10.0 0.00 0.00 0.00 80 1011.2
20260505023005 62 148 7.0 10.0 0.00 0.00 0.00 80 1011.2
20260505022504 62 141 7.0 11.0 0.00 0.00 0.00 79 1011.2
20260505022005 62 127 6.0 11.0 0.00 0.00 0.00 79 1011.1
20260505021504 62 138 7.0 11.0 0.00 0.00 0.00 79 1011.2
20260505021004 62 153 7.0 10.0 0.00 0.00 0.00 79 1011.1
20260505020504 62 161 6.0 10.0 0.00 0.00 0.00 79 1011.1
20260505020005 62 177 6.0 11.0 0.00 0.00 0.00 78 1011.1
20260505015543 63 143 7.0 12.0 0.00 0.00 0.00 77 1011.0
20260505015004 63 159 7.0 11.0 0.00 0.00 0.00 77 1011.2
20260505014504 63 140 7.0 11.0 0.00 0.00 0.00 77 1011.2
20260505014005 63 144 7.0 11.0 0.00 0.00 0.00 77 1011.2
20260505013504 63 128 7.0 11.0 0.00 0.00 0.00 77 1011.1
20260505013004 63 156 6.0 11.0 0.00 0.00 0.00 76 1011.2
20260505012505 63 128 7.0 11.0 0.00 0.00 0.00 76 1011.1
20260505011505 63 148 7.0 11.0 0.00 0.00 0.00 75 1011.0
20260505011004 63 130 8.0 11.0 0.00 0.00 0.00 74 1011.1
20260505010504 63 137 6.0 11.0 0.00 0.00 0.00 74 1011.1
20260505010005 63 161 7.0 11.0 0.00 0.00 0.00 73 1010.9
20260505005505 63 164 6.0 11.0 0.00 0.00 0.00 72 1010.9
20260505004504 64 135 8.0 12.0 0.00 0.00 0.00 69 1010.8
20260505004004 64 156 7.0 10.0 0.00 0.00 0.00 69 1010.8
20260505003005 64 137 6.0 14.0 0.00 0.00 0.00 66 1010.7
20260505002004 64 141 7.0 11.0 0.00 0.00 0.00 66 1010.7
20260505001505 65 121 7.0 10.0 0.00 0.00 0.00 66 1010.6
20260505001004 65 133 6.0 10.0 0.00 0.00 0.00 65 1010.6
20260505000504 66 142 6.0 10.0 0.00 0.00 0.00 62 1010.5
20260505000005 66 120 5.0 11.0 0.00 0.00 0.00 59 1010.5
20260504235004 67 132 6.0 11.0 0.00 0.00 0.00 55 1010.4
20260504234500 68 150 7.0 11.0 0.00 0.00 0.00 54 1010.5
20260504234002 68 155 7.0 12.0 0.00 0.00 0.00 53 1010.4
20260504233500 68 154 9.0 18.0 0.00 0.00 0.00 52 1010.5
20260504233000 68 156 9.0 18.0 0.00 0.00 0.00 51 1010.5
20260504232504 69 162 10.0 14.0 0.00 0.00 0.00 51 1010.5
20260504232004 69 166 9.0 17.0 0.00 0.00 0.00 51 1010.3
20260504231504 69 164 12.0 17.0 0.00 0.00 0.00 51 1010.5
20260504231000 69 161 9.0 15.0 0.00 0.00 0.00 50 1010.5
20260504230005 70 138 9.0 12.0 0.00 0.00 0.00 50 1010.4
20260504225502 70 161 10.0 16.0 0.00 0.00 0.00 50 1010.5
20260504225004 70 171 10.0 16.0 0.00 0.00 0.00 50 1010.4
20260504223959 70 163 11.0 16.0 0.00 0.00 0.00 49 1010.5
20260504223500 71 169 13.0 16.0 0.00 0.00 0.00 49 1010.5
20260504223004 71 169 12.0 17.0 0.00 0.00 0.00 48 1010.5
20260504222502 71 161 12.0 16.0 0.00 0.00 0.00 48 1010.4
20260504222000 71 174 10.0 16.0 0.00 0.00 0.00 49 1010.4
20260504221504 71 170 9.0 15.0 0.00 0.00 0.00 48 1010.4
20260504220959 71 165 10.0 16.0 0.00 0.00 0.00 46 1010.4
20260504220504 71 175 11.0 19.0 0.00 0.00 0.00 45 1010.5
20260504220004 71 161 10.0 19.0 0.00 0.00 0.00 47 1010.6
20260504215004 71 174 10.0 19.0 0.00 0.00 0.00 46 1010.6
20260504214504 71 161 10.0 19.0 0.00 0.00 0.00 47 1010.5
20260504213504 72 157 14.0 22.0 0.00 0.00 0.00 40 1010.7
20260504213004 72 161 15.0 22.0 0.00 0.00 0.00 40 1010.7
20260504212505 72 155 12.0 16.0 0.00 0.00 0.00 42 1010.7
20260504212005 72 159 13.0 17.0 0.00 0.00 0.00 40 1010.7
20260504211504 72 170 13.0 17.0 0.00 0.00 0.00 42 1010.8
20260504211005 72 164 11.0 17.0 0.00 0.00 0.00 42 1010.9
20260504210504 71 141 9.0 17.0 0.00 0.00 0.00 42 1010.7
20260504210004 72 148 9.0 17.0 0.00 0.00 0.00 44 1010.7
20260504205504 72 150 11.0 17.0 0.00 0.00 0.00 43 1010.7
20260504205000 72 153 11.0 16.0 0.00 0.00 0.00 43 1010.8
20260504204505 73 126 10.0 16.0 0.00 0.00 0.00 44 1010.8
20260504203500 73 174 13.0 16.0 0.00 0.00 0.00 42 1010.8
20260504203004 73 157 13.0 18.0 0.00 0.00 0.00 43 1010.8
20260504202504 73 142 12.0 16.0 0.00 0.00 0.00 42 1010.9
20260504202004 73 177 13.0 19.0 0.00 0.00 0.00 41 1011.0
20260504201504 73 167 17.0 19.0 0.00 0.00 0.00 39 1010.9
20260504201000 73 176 15.0 20.0 0.00 0.00 0.00 39 1011.0
20260504200502 73 169 15.0 19.0 0.00 0.00 0.00 37 1011.1
20260504195504 74 154 13.0 16.0 0.00 0.00 0.00 39 1011.2
20260504195004 74 170 11.0 16.0 0.00 0.00 0.00 38 1011.3
20260504194505 74 142 14.0 18.0 0.00 0.00 0.00 39 1011.3
20260504194004 74 167 12.0 18.0 0.00 0.00 0.00 41 1011.3
20260504193504 73 174 13.0 17.0 0.00 0.00 0.00 37 1011.5
20260504193004 73 176 14.0 19.0 0.00 0.00 0.00 38 1011.7
20260504192505 74 162 13.0 16.0 0.00 0.00 0.00 38 1011.7
20260504192005 73 169 13.0 14.0 0.00 0.00 0.00 40 1011.6
20260504191504 73 181 9.0 15.0 0.00 0.00 0.00 45 1011.6
20260504191005 73 180 10.0 16.0 0.00 0.00 0.00 44 1011.7
20260504190504 73 184 13.0 17.0 0.00 0.00 0.00 43 1011.7
20260504190005 73 183 10.0 14.0 0.00 0.00 0.00 41 1011.7
20260504185504 73 185 11.0 14.0 0.00 0.00 0.00 42 1011.9
20260504185004 73 194 8.0 12.0 0.00 0.00 0.00 44 1012.0
20260504184505 73 201 9.0 10.0 0.00 0.00 0.00 44 1012.0
20260504184004 72 187 6.0 8.0 0.00 0.00 0.00 40 1012.0
20260504183504 72 192 6.0 8.0 0.00 0.00 0.00 41 1012.1
20260504183004 72 188 6.0 8.0 0.00 0.00 0.00 37 1012.2
20260504182505 72 184 6.0 7.0 0.00 0.00 0.00 42 1012.2
20260504182005 72 190 6.0 9.0 0.00 0.00 0.00 42 1012.2